Location: Newark
(7.0858°N, 171.3717°E)
Time: 14:55:57
(UTC+00:00)

Vanguard 2 - Visible Passes

Search period start: 26 November 2020 00:00
Search period end: 06 December 2020 00:00
Orbit: 554 x 2937 km, 32.9° (Epoch: 25 November)

Date Brightness Start Highest point End Pass type
(mag) Time Alt. Az. Time Alt. Az. Time Alt. Az.
26 Nov 10.3 08:04:50 10° W 08:13:02 42° SSW 08:26:00 10° SE visible
26 Nov 11.6 10:19:13 10° SW 10:26:47 17° SSW 10:35:51 10° SSE visible
26 Nov 12.0 15:01:54 10° S 15:04:08 10° SSE 15:06:19 10° SSE visible
26 Nov 11.3 17:08:34 10° SSW 17:19:33 25° SSE 17:27:23 10° ESE visible
27 Nov 10.8 08:23:39 10° W 08:31:35 30° SSW 08:43:19 10° SSE visible
27 Nov 11.8 10:41:04 10° SW 10:46:12 12° SSW 10:51:53 10° S visible
27 Nov 11.9 15:16:33 10° S 15:23:48 14° SSE 15:30:12 10° SE visible
27 Nov 10.9 17:25:42 10° SSW 17:38:14 34° SSE 17:46:33 10° E visible
28 Nov 9.2 06:32:00 10° WNW 06:38:31 63° SSW 06:49:41 10° SE visible
28 Nov 11.2 08:43:01 10° WSW 08:50:20 22° SSW 09:00:19 10° SSE visible
28 Nov 11.7 15:32:55 10° SSW 15:43:08 19° SSE 15:51:30 10° ESE visible
28 Nov 10.4 17:43:07 10° SW 17:56:43 46° SSE 18:05:13 10° E visible
29 Nov 9.9 06:50:14 10° W 06:56:45 43° SSW 07:07:21 10° SE visible
29 Nov 11.5 09:03:13 10° SW 09:09:18 16° SSW 09:16:52 10° SSE visible
29 Nov 12.1 13:43:56 10° S 13:45:39 10° SSE 13:47:21 10° SSE visible
29 Nov 11.4 15:49:45 10° SSW 16:02:11 25° SSE 16:11:42 10° ESE visible
29 Nov 9.9 18:00:49 10° SW 18:15:01 63° SSE 18:23:31 10° ENE visible
30 Nov 10.5 07:08:52 10° W 07:15:09 30° SSW 07:24:42 10° SSE visible
30 Nov 11.7 09:25:05 10° SSW 09:28:30 11° SSW 09:32:19 10° S visible
30 Nov 12.0 13:58:14 10° S 14:05:30 13° SSE 14:12:18 10° SE visible
30 Nov 11.1 16:06:52 10° SSW 16:20:58 33° SSE 16:31:09 10° E visible
01 Dec 11.0 07:28:03 10° WSW 07:33:45 21° SSW 07:41:38 10° SSE visible
01 Dec 11.8 14:14:34 10° SSW 14:24:59 18° SSE 14:34:16 10° ESE visible
01 Dec 10.7 16:24:13 10° SW 16:39:34 44° SSE 16:50:04 10° E visible
02 Dec 11.3 07:48:10 10° SW 07:52:32 14° SSW 07:57:55 10° S visible
02 Dec 11.5 14:31:20 10° SSW 14:44:08 24° SSE 14:55:00 10° ESE visible
02 Dec 10.3 16:41:47 10° SW 16:57:58 58° SSE 17:08:34 10° ENE visible
03 Dec 12.0 12:41:36 10° S 12:46:51 12° SSE 12:52:06 10° SE visible
03 Dec 11.2 14:48:22 10° SSW 15:03:01 31° SSE 15:14:53 10° E visible
03 Dec 9.9 16:59:37 10° SW 17:16:13 75° SE 17:26:44 10° ENE visible
04 Dec 11.8 12:57:17 10° S 13:06:26 16° SSE 13:15:24 10° SE visible
04 Dec 10.9 15:05:36 10° SSW 15:21:39 41° SSE 15:34:08 10° E visible
04 Dec 9.7 17:17:45 10° SW 17:34:18 86° NW 17:44:41 10° NE visible
05 Dec 11.2 06:33:51 10° SW 06:36:26 12° SSW 06:39:25 10° S visible
05 Dec 11.6 13:13:48 10° SSW 13:25:39 21° SSE 13:36:58 10° ESE visible
05 Dec 10.6 15:23:03 10° SW 15:40:07 52° SSE 15:52:53 10° ENE visible
05 Dec 9.7 17:36:13 10° WSW 17:52:19 68° NW 18:02:26 10° NE visible
